• In Austria
  • List of Countries
  • For 7 days
  • Water Temperature
  • Satellite Maps
  • Weather Map
  • News
  • Weather Widgets
  • user-avatar
    Login

    Hourly Weather Trashigang

    Today, 21 June, Thursday

    Time Temperature Precipitation Wind Pressure Humidity
    00:00 +21°C° 0 mm 1 mps 625 mmHg 92%
    01:00 +21°C° 0 mm 1 mps 625 mmHg 91%
    02:00 +20°C° 0 mm 1 mps 625 mmHg 90%
    03:00 +20°C° 0 mm 1 mps 625 mmHg 90%
    04:00 +20°C° 0 mm 1 mps 625 mmHg 88%
    05:00 +21°C° 0 mm 1 mps 625 mmHg 86%
    06:00 +21°C° 0 mm 1 mps 626 mmHg 82%
    07:00 +23°C° 0 mm 1 mps 626 mmHg 75%
    08:00 +25°C° 0 mm 1 mps 627 mmHg 69%
    09:00 +27°C° 0 mm 1 mps 627 mmHg 62%
    10:00 +27°C° 0.2 mm 2 mps 627 mmHg 64%
    11:00 +28°C° 0.2 mm 2 mps 627 mmHg 65%
    12:00 +28°C° 0 mm 2 mps 627 mmHg 68%
    13:00 +27°C° 0.5 mm 2 mps 626 mmHg 71%
    14:00 +27°C° 0.5 mm 2 mps 626 mmHg 74%
    15:00 +26°C° 0.5 mm 2 mps 625 mmHg 76%
    16:00 +26°C° 0.5 mm 1 mps 625 mmHg 81%
    17:00 +25°C° 0.5 mm 1 mps 624 mmHg 85%
    18:00 +24°C° 0.5 mm 1 mps 624 mmHg 89%
    19:00 +23°C° 0.1 mm 1 mps 624 mmHg 92%
    20:00 +23°C° 0.1 mm 1 mps 625 mmHg 94%
    21:00 +20°C° 0.1 mm 0 mps 625 mmHg 96%
    22:00 +20°C° 0 mm 0 mps 625 mmHg 96%
    23:00 +19°C° 0 mm 0 mps 625 mmHg 95%

    Tomorrow, 22 June, Friday

    Time Temperature Precipitation Wind Pressure Humidity
    00:00 +21°C° 0 mm 1 mps 625 mmHg 95%
    01:00 +21°C° 0 mm 1 mps 625 mmHg 94%
    02:00 +21°C° 0 mm 1 mps 625 mmHg 93%
    03:00 +20°C° 0 mm 1 mps 624 mmHg 92%
    04:00 +19°C° 0.1 mm 0 mps 625 mmHg 91%
    05:00 +19°C° 0.1 mm 0 mps 625 mmHg 90%
    06:00 +19°C° 0.1 mm 0 mps 625 mmHg 89%
    07:00 +21°C° 0.2 mm 0 mps 626 mmHg 85%
    08:00 +24°C° 0.2 mm 1 mps 626 mmHg 81%
    09:00 +25°C° 0.2 mm 1 mps 627 mmHg 78%
    10:00 +26°C° 0.3 mm 1 mps 626 mmHg 75%
    11:00 +27°C° 0.3 mm 2 mps 626 mmHg 73%
    12:00 +27°C° 0.3 mm 2 mps 626 mmHg 70%
    13:00 +26°C° 0.7 mm 2 mps 625 mmHg 76%
    14:00 +25°C° 0.7 mm 2 mps 625 mmHg 83%
    15:00 +24°C° 0.7 mm 1 mps 624 mmHg 89%
    16:00 +24°C° 0.3 mm 1 mps 624 mmHg 91%
    17:00 +23°C° 0.3 mm 1 mps 623 mmHg 93%
    18:00 +23°C° 0.3 mm 1 mps 623 mmHg 94%
    19:00 +22°C° 0.1 mm 1 mps 623 mmHg 95%
    20:00 +20°C° 0.1 mm 0 mps 624 mmHg 96%
    21:00 +20°C° 0.1 mm 0 mps 624 mmHg 97%
    22:00 +19°C° 0 mm 0 mps 624 mmHg 97%
    23:00 +19°C° 0 mm 0 mps 624 mmHg 97%

    Day after tomorrow, 23 June, Saturday

    Time Temperature Precipitation Wind Pressure Humidity
    00:00 +19°C° 0 mm 0 mps 624 mmHg 96%
    01:00 +19°C° 0.1 mm 0 mps 624 mmHg 95%
    02:00 +19°C° 0.1 mm 0 mps 624 mmHg 95%
    03:00 +19°C° 0.1 mm 0 mps 624 mmHg 94%
    04:00 +19°C° 0.6 mm 0 mps 624 mmHg 93%
    05:00 +19°C° 0.6 mm 0 mps 624 mmHg 92%
    06:00 +19°C° 0.6 mm 0 mps 624 mmHg 91%
    07:00 +20°C° 1.5 mm 0 mps 624 mmHg 88%
    08:00 +23°C° 1.5 mm 1 mps 625 mmHg 85%
    09:00 +23°C° 1.5 mm 1 mps 625 mmHg 82%
    10:00 +23°C° 0.5 mm 1 mps 625 mmHg 82%
    11:00 +23°C° 0.5 mm 1 mps 625 mmHg 83%
    12:00 +23°C° 0.5 mm 1 mps 625 mmHg 84%
    13:00 +24°C° 0.2 mm 1 mps 624 mmHg 81%
    14:00 +25°C° 0.2 mm 1 mps 624 mmHg 78%
    15:00 +26°C° 0.2 mm 1 mps 624 mmHg 76%
    16:00 +25°C° 0.1 mm 1 mps 624 mmHg 81%
    17:00 +24°C° 0.1 mm 1 mps 623 mmHg 86%
    18:00 +23°C° 0.1 mm 1 mps 623 mmHg 91%
    19:00 +23°C° 0.1 mm 1 mps 623 mmHg 93%
    20:00 +22°C° 0.1 mm 1 mps 624 mmHg 95%
    21:00 +20°C° 0.1 mm 0 mps 624 mmHg 98%
    22:00 +19°C° 0 mm 0 mps 624 mmHg 97%
    23:00 +19°C° 0 mm 0 mps 624 mmHg 97%

    24 June, Sunday

    Time Temperature Precipitation Wind Pressure Humidity
    00:00 +19°C° 0 mm 0 mps 624 mmHg 96%
    01:00 +19°C° 0.3 mm 0 mps 623 mmHg 96%
    02:00 +19°C° 0.3 mm 0 mps 623 mmHg 95%
    03:00 +19°C° 0.3 mm 0 mps 623 mmHg 95%
    04:00 +21°C° 0.8 mm 1 mps 623 mmHg 93%
    05:00 +21°C° 0.8 mm 1 mps 623 mmHg 92%
    06:00 +21°C° 0.8 mm 1 mps 623 mmHg 90%
    07:00 +22°C° 0.9 mm 1 mps 624 mmHg 87%
    08:00 +23°C° 0.9 mm 1 mps 624 mmHg 83%
    09:00 +24°C° 0.9 mm 1 mps 625 mmHg 79%
    10:00 +24°C° 0.7 mm 1 mps 625 mmHg 80%
    11:00 +25°C° 0.7 mm 1 mps 624 mmHg 81%
    12:00 +25°C° 0.7 mm 1 mps 624 mmHg 81%
    13:00 +25°C° 0.2 mm 1 mps 624 mmHg 81%
    14:00 +25°C° 0.2 mm 2 mps 624 mmHg 81%
    15:00 +26°C° 0.2 mm 2 mps 623 mmHg 81%
    16:00 +25°C° 0.2 mm 1 mps 623 mmHg 85%
    17:00 +24°C° 0.2 mm 1 mps 623 mmHg 89%
    18:00 +23°C° 0.2 mm 1 mps 623 mmHg 93%
    19:00 +23°C° 0.3 mm 1 mps 623 mmHg 95%
    20:00 +22°C° 0.3 mm 1 mps 623 mmHg 96%
    21:00 +20°C° 0.3 mm 0 mps 624 mmHg 98%
    22:00 +20°C° 0.2 mm 0 mps 623 mmHg 97%
    23:00 +19°C° 0.2 mm 0 mps 623 mmHg 96%

    25 June, Monday

    Time Temperature Precipitation Wind Pressure Humidity
    00:00 +19°C° 0.2 mm 0 mps 623 mmHg 96%
    01:00 +19°C° 0.7 mm 0 mps 623 mmHg 95%
    02:00 +19°C° 0.7 mm 0 mps 623 mmHg 95%
    03:00 +19°C° 0.7 mm 0 mps 623 mmHg 94%
    04:00 +19°C° 3.4 mm 0 mps 623 mmHg 93%
    05:00 +19°C° 3.4 mm 0 mps 623 mmHg 92%
    06:00 +19°C° 3.4 mm 0 mps 623 mmHg 91%
    07:00 +19°C° 2.1 mm 0 mps 623 mmHg 91%
    08:00 +20°C° 2.1 mm 0 mps 623 mmHg 91%
    09:00 +22°C° 2.1 mm 1 mps 624 mmHg 92%
    10:00 +22°C° 2.3 mm 1 mps 623 mmHg 91%
    11:00 +22°C° 2.3 mm 1 mps 623 mmHg 91%
    12:00 +22°C° 2.3 mm 1 mps 623 mmHg 91%
    13:00 +22°C° 1.2 mm 1 mps 622 mmHg 92%
    14:00 +22°C° 1.2 mm 1 mps 622 mmHg 92%
    15:00 +20°C° 1.2 mm 0 mps 622 mmHg 93%
    16:00 +22°C° 0 mm 1 mps 622 mmHg 91%
    17:00 +23°C° 0 mm 1 mps 622 mmHg 90%
    18:00 +23°C° 0 mm 1 mps 622 mmHg 88%
    19:00 +22°C° 0.1 mm 1 mps 622 mmHg 91%
    20:00 +20°C° 0.1 mm 0 mps 623 mmHg 93%
    21:00 +19°C° 0.1 mm 0 mps 623 mmHg 96%
    22:00 +19°C° 0.2 mm 0 mps 623 mmHg 95%
    23:00 +19°C° 0.2 mm 0 mps 623 mmHg 94%

    26 June, Tuesday

    Time Temperature Precipitation Wind Pressure Humidity
    00:00 +21°C° 0.2 mm 1 mps 623 mmHg 93%
    01:00 +19°C° 0.5 mm 0 mps 623 mmHg 92%
    02:00 +19°C° 0.5 mm 0 mps 622 mmHg 92%
    03:00 +18°C° 0.5 mm 0 mps 622 mmHg 92%
    04:00 +19°C° 1.4 mm 0 mps 622 mmHg 91%
    05:00 +19°C° 1.4 mm 0 mps 623 mmHg 90%
    06:00 +19°C° 1.4 mm 0 mps 623 mmHg 89%
    07:00 +21°C° 1.4 mm 1 mps 623 mmHg 88%
    08:00 +22°C° 1.4 mm 1 mps 624 mmHg 87%
    09:00 +22°C° 1.4 mm 1 mps 624 mmHg 86%
    10:00 +22°C° 1.5 mm 1 mps 624 mmHg 87%
    11:00 +22°C° 1.5 mm 1 mps 624 mmHg 87%
    12:00 +22°C° 1.5 mm 1 mps 624 mmHg 88%
    13:00 +22°C° 1 mm 1 mps 623 mmHg 88%
    14:00 +22°C° 1 mm 1 mps 623 mmHg 89%
    15:00 +22°C° 1 mm 1 mps 622 mmHg 89%
    16:00 +23°C° 0.1 mm 1 mps 623 mmHg 88%
    17:00 +23°C° 0.1 mm 1 mps 623 mmHg 88%
    18:00 +23°C° 0.1 mm 1 mps 623 mmHg 87%
    19:00 +23°C° 0 mm 1 mps 624 mmHg 90%
    20:00 +20°C° 0 mm 0 mps 624 mmHg 92%
    21:00 +19°C° 0 mm 0 mps 624 mmHg 95%
    22:00 +19°C° 0.1 mm 0 mps 624 mmHg 94%
    23:00 +19°C° 0.1 mm 0 mps 624 mmHg 94%
    Show more